Time,TemperatureF,DewpointF,PressureIn,WindDirection,WindDirectionDegrees,WindSpeedMPH,WindSpeedGustMPH,Humidity,HourlyPrecipIn,Conditions,Clouds,dailyrainin,SoftwareType,DateUTC
2013-02-03 00:01:00,30.0,4.0,-100.00,WSW,255,4.0,9.0,33,-99.99,,,-99.99,,2013-02-03 07:01:00,
2013-02-03 00:11:00,29.0,4.0,-100.00,WNW,290,2.0,6.0,33,-99.99,,,-99.99,,2013-02-03 07:11:00,
2013-02-03 00:21:00,29.0,4.0,-100.00,WNW,295,2.0,4.0,33,-99.99,,,-99.99,,2013-02-03 07:21:00,
2013-02-03 00:31:00,29.0,4.0,-100.00,WNW,300,4.0,6.0,33,-99.99,,,-99.99,,2013-02-03 07:31:00,
2013-02-03 00:41:00,28.0,4.0,-100.00,WSW,245,9.0,11.0,34,-99.99,,,-99.99,,2013-02-03 07:41:00,
2013-02-03 00:52:00,30.0,5.0,-100.00,West,270,11.0,16.0,34,-99.99,,,-99.99,,2013-02-03 07:52:00,
2013-02-03 01:01:00,29.0,4.0,-100.00,WNW,295,6.0,11.0,34,-99.99,,,-99.99,,2013-02-03 08:01:00,
2013-02-03 01:11:00,29.0,4.0,-100.00,WNW,295,6.0,8.0,34,-99.99,,,-99.99,,2013-02-03 08:11:00,
2013-02-03 01:22:00,29.0,5.0,-100.00,West,260,11.0,15.0,34,-99.99,,,-99.99,,2013-02-03 08:22:00,
2013-02-03 01:32:00,31.0,6.0,-100.00,WSW,255,14.0,22.0,33,-99.99,,,-99.99,,2013-02-03 08:32:00,
2013-02-03 01:41:00,31.0,6.0,-100.00,WSW,255,16.0,22.0,33,-99.99,,,-99.99,,2013-02-03 08:41:00,
2013-02-03 01:52:00,31.0,6.0,-100.00,WSW,250,18.0,24.0,32,-99.99,,,-99.99,,2013-02-03 08:52:00,
2013-02-03 02:02:00,31.0,6.0,-100.00,WSW,255,18.0,22.0,32,-99.99,,,-99.99,,2013-02-03 09:02:00,
2013-02-03 02:11:00,31.0,5.0,-100.00,West,265,17.0,24.0,32,-99.99,,,-99.99,,2013-02-03 09:11:00,
2013-02-03 02:21:00,31.0,5.0,-100.00,West,265,17.0,24.0,32,-99.99,,,-99.99,,2013-02-03 09:21:00,
2013-02-03 02:31:00,31.0,5.0,-100.00,West,265,18.0,25.0,32,-99.99,,,-99.99,,2013-02-03 09:31:00,
2013-02-03 02:41:00,31.0,5.0,-100.00,WSW,255,18.0,24.0,32,-99.99,,,-99.99,,2013-02-03 09:41:00,
2013-02-03 02:51:00,32.0,5.0,-100.00,WSW,255,21.0,26.0,31,-99.99,,,-99.99,,2013-02-03 09:51:00,
2013-02-03 03:01:00,31.0,4.0,-100.00,West,260,18.0,24.0,31,-99.99,,,-99.99,,2013-02-03 10:01:00,
2013-02-03 03:11:00,31.0,4.0,-100.00,West,270,14.0,21.0,31,-99.99,,,-99.99,,2013-02-03 10:11:00,
2013-02-03 03:21:00,30.0,4.0,-100.00,West,270,13.0,20.0,32,-99.99,,,-99.99,,2013-02-03 10:21:00,
2013-02-03 03:31:00,28.0,3.0,-100.00,WNW,285,14.0,19.0,33,-99.99,,,-99.99,,2013-02-03 10:31:00,
2013-02-03 03:42:00,28.0,3.0,-100.00,West,275,15.0,18.0,33,-99.99,,,-99.99,,2013-02-03 10:42:00,
2013-02-03 03:52:00,29.0,4.0,-100.00,West,280,14.0,18.0,33,-99.99,,,-99.99,,2013-02-03 10:52:00,
2013-02-03 04:02:00,28.0,3.0,-100.00,West,280,11.0,16.0,33,-99.99,,,-99.99,,2013-02-03 11:02:00,
2013-02-03 04:11:00,28.0,3.0,-100.00,West,280,12.0,17.0,33,-99.99,,,-99.99,,2013-02-03 11:11:00,
2013-02-03 04:22:00,28.0,3.0,-100.00,West,270,14.0,17.0,34,-99.99,,,-99.99,,2013-02-03 11:22:00,
2013-02-03 04:32:00,28.0,3.0,-100.00,West,270,14.0,19.0,34,-99.99,,,-99.99,,2013-02-03 11:32:00,
2013-02-03 04:41:00,29.0,4.0,-100.00,West,265,15.0,19.0,33,-99.99,,,-99.99,,2013-02-03 11:41:00,
2013-02-03 04:52:00,30.0,4.0,-100.00,West,265,15.0,22.0,31,-99.99,,,-99.99,,2013-02-03 11:52:00,
2013-02-03 05:02:00,30.0,4.0,-100.00,West,270,14.0,23.0,31,-99.99,,,-99.99,,2013-02-03 12:02:00,
2013-02-03 05:11:00,31.0,4.0,-100.00,West,270,17.0,22.0,30,-99.99,,,-99.99,,2013-02-03 12:11:00,
2013-02-03 05:22:00,29.0,2.0,-100.00,NW,325,9.0,19.0,31,-99.99,,,-99.99,,2013-02-03 12:22:00,
2013-02-03 05:32:00,28.0,2.0,-100.00,NW,320,9.0,19.0,31,-99.99,,,-99.99,,2013-02-03 12:32:00,
2013-02-03 05:42:00,25.0,0.0,-100.00,NW,315,7.0,15.0,34,-99.99,,,-99.99,,2013-02-03 12:42:00,
2013-02-03 05:52:00,23.0,0.0,-100.00,NNW,330,8.0,11.0,36,-99.99,,,-99.99,,2013-02-03 12:52:00,
2013-02-03 06:03:00,23.0,1.0,-100.00,NW,320,7.0,11.0,36,-99.99,,,-99.99,,2013-02-03 13:03:00,
2013-02-03 06:11:00,24.0,1.0,-100.00,NW,325,10.0,15.0,36,-99.99,,,-99.99,,2013-02-03 13:11:00,
2013-02-03 06:21:00,25.0,2.0,-100.00,NW,315,9.0,15.0,36,-99.99,,,-99.99,,2013-02-03 13:21:00,
2013-02-03 06:32:00,25.0,2.0,-100.00,NW,310,7.0,11.0,36,-99.99,,,-99.99,,2013-02-03 13:32:00,
2013-02-03 06:42:00,24.0,1.0,-100.00,WNW,285,9.0,12.0,36,-99.99,,,-99.99,,2013-02-03 13:42:00,
2013-02-03 06:52:00,23.0,1.0,-100.00,NW,310,7.0,12.0,37,-99.99,,,-99.99,,2013-02-03 13:52:00,
2013-02-03 07:02:00,24.0,2.0,-100.00,NW,305,9.0,12.0,36,-99.99,,,-99.99,,2013-02-03 14:02:00,
2013-02-03 07:11:00,25.0,2.0,-100.00,WNW,300,7.0,11.0,36,-99.99,,,-99.99,,2013-02-03 14:11:00,
2013-02-03 07:21:00,26.0,2.0,-100.00,NW,305,7.0,12.0,35,-99.99,,,-99.99,,2013-02-03 14:21:00,
2013-02-03 07:32:00,26.0,2.0,-100.00,NW,305,10.0,14.0,34,-99.99,,,-99.99,,2013-02-03 14:32:00,
2013-02-03 07:42:00,27.0,2.0,-100.00,NW,310,11.0,17.0,34,-99.99,,,-99.99,,2013-02-03 14:42:00,
2013-02-03 07:52:00,26.0,2.0,-100.00,NW,315,9.0,13.0,34,-99.99,,,-99.99,,2013-02-03 14:52:00,
2013-02-03 08:03:00,26.0,2.0,-100.00,NW,320,9.0,13.0,34,-99.99,,,-99.99,,2013-02-03 15:03:00,
2013-02-03 08:11:00,26.0,2.0,-100.00,NW,310,4.0,7.0,34,-99.99,,,-99.99,,2013-02-03 15:11:00,
2013-02-03 08:22:00,32.0,5.0,-100.00,West,275,14.0,20.0,31,-99.99,,,-99.99,,2013-02-03 15:22:00,
2013-02-03 08:32:00,33.0,4.0,-100.00,West,270,13.0,18.0,29,-99.99,,,-99.99,,2013-02-03 15:32:00,
2013-02-03 08:41:00,32.0,4.0,-100.00,NW,325,7.0,18.0,29,-99.99,,,-99.99,,2013-02-03 15:41:00,
2013-02-03 08:51:00,29.0,2.0,-100.00,North,0,4.0,12.0,30,-99.99,,,-99.99,,2013-02-03 15:51:00,
2013-02-03 09:02:00,29.0,3.0,-100.00,NNW,340,6.0,7.0,32,-99.99,,,-99.99,,2013-02-03 16:02:00,
2013-02-03 09:11:00,29.0,3.0,-100.00,North,355,6.0,7.0,32,-99.99,,,-99.99,,2013-02-03 16:11:00,
2013-02-03 09:22:00,30.0,4.0,-100.00,NNW,330,7.0,9.0,32,-99.99,,,-99.99,,2013-02-03 16:22:00,
2013-02-03 09:32:00,31.0,5.0,-100.00,North,350,9.0,11.0,32,-99.99,,,-99.99,,2013-02-03 16:32:00,
2013-02-03 09:41:00,33.0,7.0,-100.00,NW,315,10.0,13.0,32,-99.99,,,-99.99,,2013-02-03 16:41:00,
2013-02-03 09:52:00,35.0,7.0,-100.00,NW,320,12.0,18.0,31,-99.99,,,-99.99,,2013-02-03 16:52:00,
2013-02-03 10:02:00,36.0,8.0,-100.00,WNW,295,9.0,15.0,30,-99.99,,,-99.99,,2013-02-03 17:02:00,
2013-02-03 10:11:00,38.0,7.0,-100.00,WNW,295,14.0,18.0,27,-99.99,,,-99.99,,2013-02-03 17:11:00,
2013-02-03 10:21:00,38.0,7.0,-100.00,West,275,15.0,21.0,26,-99.99,,,-99.99,,2013-02-03 17:21:00,
2013-02-03 10:32:00,38.0,6.0,-100.00,West,265,17.0,24.0,24,-99.99,,,-99.99,,2013-02-03 17:32:00,
2013-02-03 10:42:00,39.0,6.0,-100.00,West,280,14.0,22.0,24,-99.99,,,-99.99,,2013-02-03 17:42:00,
2013-02-03 10:52:00,40.0,6.0,-100.00,West,265,16.0,23.0,23,-99.99,,,-99.99,,2013-02-03 17:52:00,
2013-02-03 11:03:00,41.0,6.0,-100.00,West,280,17.0,25.0,22,-99.99,,,-99.99,,2013-02-03 18:03:00,
2013-02-03 11:11:00,40.0,5.0,-100.00,West,275,19.0,26.0,22,-99.99,,,-99.99,,2013-02-03 18:11:00,
2013-02-03 11:23:00,41.0,4.0,-100.00,West,265,22.0,30.0,21,-99.99,,,-99.99,,2013-02-03 18:23:00,
2013-02-03 11:32:00,41.0,4.0,-100.00,West,280,17.0,29.0,20,-99.99,,,-99.99,,2013-02-03 18:32:00,
2013-02-03 11:42:00,41.0,4.0,-100.00,West,260,17.0,27.0,20,-99.99,,,-99.99,,2013-02-03 18:42:00,
2013-02-03 11:51:00,41.0,3.0,-100.00,West,265,20.0,30.0,19,-99.99,,,-99.99,,2013-02-03 18:51:00,
2013-02-03 12:02:00,41.0,2.0,-100.00,West,280,22.0,30.0,19,-99.99,,,-99.99,,2013-02-03 19:02:00,
2013-02-03 12:11:00,41.0,2.0,-100.00,West,275,26.0,36.0,19,-99.99,,,-99.99,,2013-02-03 19:11:00,
2013-02-03 12:22:00,40.0,1.0,-100.00,West,280,29.0,34.0,18,-99.99,,,-99.99,,2013-02-03 19:22:00,
2013-02-03 12:32:00,41.0,2.0,-100.00,West,265,21.0,32.0,18,-99.99,,,-99.99,,2013-02-03 19:32:00,
2013-02-03 12:41:00,40.0,1.0,-100.00,West,265,23.0,30.0,18,-99.99,,,-99.99,,2013-02-03 19:41:00,
2013-02-03 12:51:00,41.0,1.0,-100.00,West,265,26.0,32.0,18,-99.99,,,-99.99,,2013-02-03 19:51:00,
2013-02-03 13:01:00,40.0,1.0,-100.00,West,270,27.0,39.0,18,-99.99,,,-99.99,,2013-02-03 20:01:00,
2013-02-03 13:12:00,40.0,1.0,-100.00,West,270,26.0,35.0,18,-99.99,,,-99.99,,2013-02-03 20:12:00,
2013-02-03 13:21:00,40.0,0.0,-100.00,West,270,27.0,35.0,18,-99.99,,,-99.99,,2013-02-03 20:21:00,
2013-02-03 13:32:00,40.0,1.0,-100.00,West,270,22.0,35.0,18,-99.99,,,-99.99,,2013-02-03 20:32:00,
2013-02-03 13:42:00,40.0,0.0,-100.00,West,265,29.0,42.0,18,-99.99,,,-99.99,,2013-02-03 20:42:00,
2013-02-03 13:52:00,40.0,1.0,-100.00,West,275,23.0,35.0,18,-99.99,,,-99.99,,2013-02-03 20:52:00,
2013-02-03 14:03:00,40.0,0.0,-100.00,West,265,26.0,36.0,18,-99.99,,,-99.99,,2013-02-03 21:03:00,
2013-02-03 14:11:00,40.0,0.0,-100.00,West,265,24.0,35.0,18,-99.99,,,-99.99,,2013-02-03 21:11:00,
2013-02-03 14:21:00,39.0,0.0,-100.00,West,260,26.0,34.0,19,-99.99,,,-99.99,,2013-02-03 21:21:00,
2013-02-03 14:32:00,39.0,0.0,-100.00,West,265,25.0,31.0,19,-99.99,,,-99.99,,2013-02-03 21:32:00,
2013-02-03 14:42:00,39.0,0.0,-100.00,West,265,22.0,29.0,19,-99.99,,,-99.99,,2013-02-03 21:42:00,
2013-02-03 14:51:00,38.0,0.0,-100.00,West,265,22.0,31.0,19,-99.99,,,-99.99,,2013-02-03 21:51:00,
2013-02-03 15:01:00,38.0,0.0,-100.00,West,275,22.0,33.0,19,-99.99,,,-99.99,,2013-02-03 22:01:00,
2013-02-03 15:11:00,38.0,0.0,-100.00,West,275,26.0,32.0,19,-99.99,,,-99.99,,2013-02-03 22:11:00,
2013-02-03 15:21:00,37.0,0.0,-100.00,West,265,24.0,35.0,20,-99.99,,,-99.99,,2013-02-03 22:21:00,
2013-02-03 15:32:00,37.0,0.0,-100.00,West,265,24.0,32.0,20,-99.99,,,-99.99,,2013-02-03 22:32:00,
2013-02-03 15:41:00,37.0,1.0,-100.00,West,265,20.0,30.0,20,-99.99,,,-99.99,,2013-02-03 22:41:00,
2013-02-03 15:51:00,37.0,1.0,-100.00,West,265,21.0,32.0,21,-99.99,,,-99.99,,2013-02-03 22:51:00,
2013-02-03 16:01:00,36.0,1.0,-100.00,West,265,24.0,31.0,21,-99.99,,,-99.99,,2013-02-03 23:01:00,
2013-02-03 16:12:00,36.0,1.0,-100.00,West,260,22.0,31.0,21,-99.99,,,-99.99,,2013-02-03 23:12:00,
2013-02-03 16:22:00,36.0,1.0,-100.00,West,265,21.0,27.0,22,-99.99,,,-99.99,,2013-02-03 23:22:00,
2013-02-03 16:32:00,35.0,1.0,-100.00,West,265,28.0,37.0,22,-99.99,,,-99.99,,2013-02-03 23:32:00,
2013-02-03 16:42:00,35.0,0.0,-100.00,West,265,27.0,35.0,22,-99.99,,,-99.99,,2013-02-03 23:42:00,
2013-02-03 16:52:00,35.0,1.0,-100.00,West,265,29.0,35.0,22,-99.99,,,-99.99,,2013-02-03 23:52:00,
2013-02-03 17:01:00,35.0,0.0,-100.00,West,270,26.0,34.0,23,-99.99,,,-99.99,,2013-02-04 00:01:00,
2013-02-03 17:11:00,34.0,0.0,-100.00,West,275,26.0,34.0,23,-99.99,,,-99.99,,2013-02-04 00:11:00,
2013-02-03 17:22:00,34.0,0.0,-100.00,West,270,22.0,32.0,23,-99.99,,,-99.99,,2013-02-04 00:22:00,
2013-02-03 17:32:00,33.0,0.0,-100.00,West,270,22.0,29.0,24,-99.99,,,-99.99,,2013-02-04 00:32:00,
2013-02-03 17:41:00,33.0,0.0,-100.00,West,265,19.0,26.0,24,-99.99,,,-99.99,,2013-02-04 00:41:00,
2013-02-03 17:51:00,32.0,0.0,-100.00,West,270,16.0,24.0,24,-99.99,,,-99.99,,2013-02-04 00:51:00,
2013-02-03 18:01:00,32.0,0.0,-100.00,West,275,16.0,23.0,25,-99.99,,,-99.99,,2013-02-04 01:01:00,
2013-02-03 18:11:00,31.0,0.0,-100.00,WNW,295,15.0,24.0,25,-99.99,,,-99.99,,2013-02-04 01:11:00,
2013-02-03 18:21:00,31.0,0.0,-100.00,WNW,300,15.0,21.0,25,-99.99,,,-99.99,,2013-02-04 01:21:00,
2013-02-03 18:31:00,30.0,0.0,-100.00,WNW,285,15.0,21.0,26,-99.99,,,-99.99,,2013-02-04 01:31:00,
2013-02-03 18:41:00,30.0,-1.0,-100.00,West,280,14.0,20.0,26,-99.99,,,-99.99,,2013-02-04 01:41:00,
2013-02-03 18:52:00,29.0,0.0,-100.00,WNW,300,11.0,19.0,27,-99.99,,,-99.99,,2013-02-04 01:52:00,
2013-02-03 19:02:00,29.0,0.0,-100.00,WNW,295,13.0,18.0,28,-99.99,,,-99.99,,2013-02-04 02:02:00,
2013-02-03 19:11:00,29.0,0.0,-100.00,WNW,290,14.0,18.0,28,-99.99,,,-99.99,,2013-02-04 02:11:00,
2013-02-03 19:21:00,29.0,1.0,-100.00,West,280,18.0,22.0,28,-99.99,,,-99.99,,2013-02-04 02:21:00,
2013-02-03 19:31:00,29.0,1.0,-100.00,West,275,18.0,24.0,28,-99.99,,,-99.99,,2013-02-04 02:31:00,
2013-02-03 19:41:00,30.0,2.0,-100.00,West,265,24.0,30.0,28,-99.99,,,-99.99,,2013-02-04 02:41:00,
2013-02-03 19:52:00,30.0,1.0,-100.00,West,265,21.0,32.0,28,-99.99,,,-99.99,,2013-02-04 02:52:00,
2013-02-03 20:02:00,30.0,2.0,-100.00,WNW,285,21.0,32.0,28,-99.99,,,-99.99,,2013-02-04 03:02:00,
2013-02-03 20:11:00,29.0,1.0,-100.00,West,270,16.0,29.0,29,-99.99,,,-99.99,,2013-02-04 03:11:00,
2013-02-03 20:21:00,29.0,1.0,-100.00,West,275,21.0,29.0,29,-99.99,,,-99.99,,2013-02-04 03:21:00,
2013-02-03 20:32:00,29.0,1.0,-100.00,West,270,24.0,35.0,29,-99.99,,,-99.99,,2013-02-04 03:32:00,
2013-02-03 20:41:00,29.0,1.0,-100.00,West,275,22.0,29.0,29,-99.99,,,-99.99,,2013-02-04 03:41:00,
2013-02-03 20:51:00,28.0,1.0,-100.00,West,275,23.0,30.0,30,-99.99,,,-99.99,,2013-02-04 03:51:00,
2013-02-03 21:01:00,29.0,1.0,-100.00,West,280,24.0,33.0,30,-99.99,,,-99.99,,2013-02-04 04:01:00,
2013-02-03 21:11:00,28.0,1.0,-100.00,West,270,19.0,31.0,29,-99.99,,,-99.99,,2013-02-04 04:11:00,
2013-02-03 21:21:00,28.0,0.0,-100.00,West,270,19.0,29.0,29,-99.99,,,-99.99,,2013-02-04 04:21:00,
2013-02-03 21:32:00,28.0,1.0,-100.00,West,260,19.0,26.0,30,-99.99,,,-99.99,,2013-02-04 04:32:00,
2013-02-03 21:41:00,28.0,1.0,-100.00,West,270,24.0,30.0,30,-99.99,,,-99.99,,2013-02-04 04:41:00,
2013-02-03 21:52:00,28.0,1.0,-100.00,West,280,23.0,30.0,30,-99.99,,,-99.99,,2013-02-04 04:52:00,
2013-02-03 22:03:00,28.0,1.0,-100.00,West,270,20.0,32.0,30,-99.99,,,-99.99,,2013-02-04 05:03:00,
2013-02-03 22:11:00,28.0,1.0,-100.00,West,265,24.0,31.0,30,-99.99,,,-99.99,,2013-02-04 05:11:00,
2013-02-03 22:22:00,28.0,1.0,-100.00,West,280,22.0,30.0,30,-99.99,,,-99.99,,2013-02-04 05:22:00,
2013-02-03 22:33:00,28.0,1.0,-100.00,West,265,26.0,35.0,30,-99.99,,,-99.99,,2013-02-04 05:33:00,
2013-02-03 22:42:00,28.0,1.0,-100.00,West,270,24.0,32.0,30,-99.99,,,-99.99,,2013-02-04 05:42:00,
2013-02-03 22:52:00,27.0,1.0,-100.00,West,270,22.0,32.0,30,-99.99,,,-99.99,,2013-02-04 05:52:00,
2013-02-03 23:02:00,27.0,1.0,-100.00,West,270,21.0,30.0,31,-99.99,,,-99.99,,2013-02-04 06:02:00,
2013-02-03 23:11:00,27.0,1.0,-100.00,West,265,22.0,29.0,31,-99.99,,,-99.99,,2013-02-04 06:11:00,
2013-02-03 23:21:00,27.0,1.0,-100.00,West,270,23.0,30.0,31,-99.99,,,-99.99,,2013-02-04 06:21:00,
2013-02-03 23:32:00,27.0,1.0,-100.00,West,275,24.0,29.0,31,-99.99,,,-99.99,,2013-02-04 06:32:00,
2013-02-03 23:41:00,27.0,1.0,-100.00,West,260,22.0,32.0,32,-99.99,,,-99.99,,2013-02-04 06:41:00,
2013-02-03 23:51:00,27.0,2.0,-100.00,West,260,24.0,30.0,32,-99.99,,,-99.99,,2013-02-04 06:51:00,